Home   Weather   Arviat   Past weeks

Flag for Canada Past Weather in Arviat, Nunavut, Canada — Yesterday and Last 2 Weeks

Now
1 °F

Clear.


Feels Like: -13 °F
Forecast: 7 / 12 °F
Wind: 8 mph from West

Location: Arviat Airport

Current Time: Dec 2, 2016 at 6:39:10 pm

Latest Report: Dec 2, 2016 at 6:00 pm


Visibility: 9 mi

Pressure: 30.13 "Hg

Humidity: 85%

Dew Point: -2 °F

Location of ArviatLocation

Past Weather in Arviat — Graph

°F

Arviat Temperature Yesterday

Maximum temperature yesterday: 28 °F (at 12:00 am)
Minimum temperature yesterday: 21 °F (at 11:00 pm)
Average temperature yesterday: 25 °F

High & Low Weather Summary for the Past Weeks

 TemperatureHumidityPressure
High30 °F (Nov 28, 11:00 am)100% (Nov 21, 12:00 pm)30.38 "Hg (Nov 21, 12:00 pm)
Low-4 °F (Nov 18, 12:00 am)77% (Nov 17, 5:00 pm)29.82 "Hg (Nov 27, 2:00 pm)
Average17 °F90%30.12 "Hg
* Reported Nov 17 5:00 pm — Dec 2 5:00 pm, Arviat, Weather by CustomWeather, © 2016

Note: Actual official high and low records may vary slightly from our data, if they occured in-between our weather recording intervals... More about our weather records

Advertising

Arviat Weather History for the Previous 24 Hours

Scroll right to see more
 ConditionsComfort  
Time TempWeatherWind HumidityBarometerVisibility
5:00 pm
Fri, Dec 2
1 °FClear.9 mph85%30.14 "Hg15 mi
4:00 pm1 °FClear.10 mph85%30.14 "Hg15 mi
3:00 pm1 °FSunny.9 mph85%30.15 "Hg15 mi
2:00 pm3 °FSunny.9 mph85%30.15 "Hg15 mi
1:00 pm3 °FSunny.10 mph92%30.14 "Hg15 mi
12:00 pm5 °FPassing clouds.10 mph85%30.14 "Hg15 mi
11:00 am7 °FSunny.13 mph85%30.16 "Hg15 mi
10:00 am7 °FPassing clouds.12 mph85%30.16 "Hg15 mi
9:00 am9 °FClear.9 mph85%30.17 "Hg15 mi
8:00 am14 °FLight snow. Low clouds.12 mph92%30.17 "Hg15 mi
7:00 am16 °FLight snow. Low clouds.16 mph93%30.17 "Hg15 mi
6:03 am16 °FLight snow. Low clouds.14 mph93%30.17 "Hg3 mi
5:00 am18 °FLight snow. Low clouds.17 mph93%30.17 "Hg6 mi
4:56 am18 °FLight snow. Low clouds.16 mph93%30.17 "Hg6 mi
4:00 am18 °FLight snow. Low clouds.13 mph93%30.17 "Hg9 mi
3:00 am18 °FLight snow. Low clouds.16 mph93%30.18 "Hg9 mi
2:59 am18 °FLight snow. Low clouds.15 mph93%30.18 "Hg9 mi
2:00 am19 °FLight snow. Low clouds.14 mph93%30.17 "Hg8 mi
1:58 am19 °FLight snow. Low clouds.14 mph93%30.17 "Hg8 mi
1:00 am19 °FLow clouds.13 mph93%30.17 "Hg9 mi
12:00 am21 °FLow clouds.12 mph93%30.18 "Hg9 mi
11:00 pm
Thu, Dec 1
21 °FLow clouds.12 mph93%30.16 "Hg9 mi
10:00 pm23 °FLow clouds.10 mph86%30.16 "Hg9 mi
9:56 pm23 °FLow clouds.12 mph93%30.16 "Hg9 mi
9:00 pm23 °FLow clouds.8 mph93%30.15 "Hg9 mi
8:00 pm23 °FLow clouds.8 mph93%30.15 "Hg9 mi
7:00 pm23 °FLow clouds.8 mph93%30.15 "Hg9 mi
6:00 pm23 °FLow clouds.7 mph93%30.15 "Hg9 mi
Weather by CustomWeather, © 2016

See weather overviewHow to use our weather pages